Home   Weather   Rancho Cucamonga   Past weeks
Flag for USA

Past Weather in Rancho Cucamonga, California, USA — Yesterday and Last 2 Weeks

Now
79 °F

Partly sunny.


Feels Like: 80 °F
Forecast: 81 / 60 °F
Wind: 9 mph from Southwest

Location: Ontario International Airport

Current Time: Jun 16, 2019 at 1:58:30 pm

Latest Report: Jun 16, 2019 at 12:53 pm


Visibility: 7 mi

Pressure: 29.83 "Hg

Humidity: 52%

Dew Point: 60 °F

Location of Rancho CucamongaLocation

Past Weather in Rancho Cucamonga — Graph

°F

Rancho Cucamonga Temperature Yesterday

Maximum temperature yesterday: 85 °F (at 3:53 pm)
Minimum temperature yesterday: 65 °F (at 12:53 am)
Average temperature yesterday: 71 °F

High & Low Weather Summary for the Past Weeks

 TemperatureHumidityPressure
High109 °F (Jun 11, 1:53 pm)97% (Jun 6, 2:53 am)29.97 "Hg (Jun 6, 2:53 am)
Low60 °F (Jun 3, 12:53 am)8% (Jun 10, 12:53 pm)29.80 "Hg (Jun 1, 5:53 pm)
Average74 °F65%29.88 "Hg
* Reported Jun 1 11:53 am — Jun 16 11:53 am, Rancho Cucamonga. Weather by CustomWeather, © 2019

Note: Actual official high and low records may vary slightly from our data, if they occured in-between our weather recording intervals... More about our weather records

Advertising

Rancho Cucamonga Weather History for the Previous 24 Hours

Scroll right to see more
 ConditionsComfort  
Time TempWeatherWind HumidityBarometerVisibility
11:53 am
Sun, Jun 16
73 °FBroken clouds.6 mph66%29.86 "Hg6 mi
10:53 am70 °FOvercast.6 mph76%29.87 "Hg5 mi
10:36 am69 °FOvercast.No wind79%29.90 "Hg6 mi
9:53 am67 °FOvercast.No wind81%29.87 "Hg5 mi
8:53 am67 °FOvercast.3 mph81%29.87 "Hg5 mi
7:53 am66 °FOvercast.5 mph84%29.86 "Hg5 mi
6:53 am66 °FOvercast.3 mph84%29.84 "Hg5 mi
5:53 am65 °FFog.3 mph87%29.84 "Hg6 mi
4:53 am65 °FFog.5 mph87%29.83 "Hg6 mi
3:53 am65 °FOvercast.5 mph87%29.84 "Hg7 mi
2:53 am65 °FOvercast.6 mph87%29.85 "Hg7 mi
1:53 am65 °FOvercast.8 mph85%29.86 "Hg7 mi
12:53 am65 °FOvercast.8 mph85%29.87 "Hg8 mi
12:10 am66 °FPassing clouds.9 mph84%29.92 "Hg9 mi
11:53 pm
Sat, Jun 15
65 °FPassing clouds.9 mph85%29.89 "Hg9 mi
10:53 pm66 °FPassing clouds.9 mph84%29.90 "Hg10 mi
9:53 pm68 °FPassing clouds.10 mph78%29.90 "Hg10 mi
8:53 pm70 °FPassing clouds.12 mph76%29.88 "Hg10 mi
7:53 pm74 °FScattered clouds.13 mph67%29.85 "Hg10 mi
6:53 pm80 °FPartly sunny.12 mph49%29.83 "Hg10 mi
5:53 pm83 °FScattered clouds.14 mph44%29.82 "Hg10 mi
4:53 pm84 °FPartly sunny.12 mph41%29.83 "Hg10 mi
3:53 pm85 °FPartly sunny.9 mph40%29.84 "Hg10 mi
2:53 pm83 °FPartly sunny.7 mph43%29.86 "Hg9 mi
1:53 pm80 °FPartly sunny.7 mph49%29.87 "Hg7 mi
Weather by CustomWeather, © 2019

See weather overview